Race Results for
Modesto Criterium
Modesto, CA
(Event Information)
View By:
Criterium on 05/15/2010

Note: Ranking points are NOT upgrade points. An explanation of ranking points can be found here.


Men - Pro/Cat 1/2

 Place Points NameCity, StateTime USAC #BibTeam
1184.18Brian Bosch   Fresno, CA00:00:00.00 40703  519 Yahoo Cycling Team
2198.05Rand Miller (1 - Cat1)   San Francisco, CA00:00:00.00 182990  511 Webcor/Alto Velo
3211.92Kevin Klein   Menlo Park, CA00:00:00.00 47388  514 Yahoo Cycling Team
4225.79Joshua Carling   Rancho Cordova, CA00:00:00.00 234584  518 Williams Cycling
5239.66Vincent Owens   Fresno, CA00:00:00.00 242560  515 Yahoo Cycling Team
6253.53Chris Turner   Los Altos, CA00:00:00.00 253101  503 Los Gatos
7267.40John Wilk   Oakland, CA00:00:00.00 199951  516 Yahoo Cycling Team
8281.27Sean Smith   Oakland, CA00:00:00.00 204018  505 Squadra Ovest Cycling
9295.14Joel Robertson   San Leandro, CA00:00:00.00 220316  510 Webcor/Alto Velo
10309.01Nathanael Christensen   Clements, CA00:00:00.00 239919  500 Williams Cycling
11322.88Jeremiah Holdway   Sparks, NV00:00:00.00 55281  504 Taleo Racing
12336.75Maury Long   Alameda, CA00:00:00.00 256125  509 Kaiser Permanente/ Team Oaklan
13350.62Elliot Jaramillo   Burlingame, CA00:00:00.00 179930  517 IAS/RH Villa/Montano Velo
DNSDylan Seguin   Boise, ID00:00:00.00 44296  502 TEAM CLIF BAR Cycling
DNPJosh Rennie   Reno, NV00:00:00.00 251736  501 TEAM CLIF BAR Cycling
DNPJoseph Oliveri   Grass Valley, CA00:00:00.00 26674  506 HDR Racing p/b Lombardi Sports
DNPJess Raphael   Napa, CA00:00:00.00 221460  507 SAFEWAY/Bicycles Plus/PureRed
DNPJames Hardy   Oakland, CA00:00:00.00 80116  508 Kaiser Permanente/ Team Oaklan
DNPWilliam (Billy) Crane   Mountain View, CA00:00:00.00 138129  512 Webcor/Alto Velo
DNPChris Carscadden   Walnut Creek, CA00:00:00.00 165751  513 HDR Racing p/b Lombardi Sports

Men - Cat 1/2/3 - Master - 35-99

 Place Points NameCity, StateTime USAC #BibTeam
1220.78Matthew Ream   Verdi, NV00:00:00.00 211441  209 Kinetic Cycles / GBI
2228.73Joel Robertson   San Leandro, CA00:00:00.00 220316  231 Webcor/Alto Velo
3236.68John Trefethen   Danville, CA00:00:00.00 212376  223 HDR Racing p/b Lombardi Sports
4244.63Sean Smith   Oakland, CA00:00:00.00 204018  230 Squadra Ovest Cycling
5252.58Steven Gile   Salinas, CA00:00:00.00 98978  203 VOS
6260.54Tyron Hooper   San Francisco, CA00:00:00.00 251276  204 Fusion Sport
7268.49Andres Gil   Stockton, CA00:00:00.00 171882  229 Williams Cycling
8276.44David Del Rosso   Dublin, CA00:00:00.00 187432  222 HDR Racing p/b Lombardi Sports
9284.39Jeremiah Holdway   Sparks, NV00:00:00.00 55281  215 Taleo
10292.34Nick Hanni (1 - Cat2)   San Francisco00:00:00.00 96693  219 Fusion Sport USA
11300.29Chris Carscadden   Walnut Creek, CA00:00:00.00 165751  225 HDR Racing p/b Lombardi Sports
12308.24Keith DeFiebre   Prunedale, CA00:00:00.00 9046  228 California Giant Cycling
13316.20Chris Dawson   Sacramento, CA00:00:00.00 224241  202 Hot Italian
14324.15Jason Brown   Lodi, CA00:00:00.00 53115  221 Kinetic Cycles/GBI
15332.10Brian Fessenden   Orinda, CA00:00:00.00 54692  232 Morgan Stanley Smith Barney/Sp
16340.05Robert Winder   Lafayette, CA00:00:00.00 220285  227 HDR Racing p/b Lombardi Sports
17UNKNOWN RIDER   00:00:00.00  ??? -------
18UNKNOWN RIDER   00:00:00.00  ??? -------
19UNKNOWN RIDER   00:00:00.00  ??? -------
20371.86Mitch Boehs   Livingston, CA00:00:00.00 237309  214 Fun Sport Bikes Cycling Team
21379.81Robert Napieralski   Springville, CA00:00:00.00 271499  213 Yokohl Ranch/Sierra Bicycle We
22387.76Scott Derdenger   Benicia, CA00:00:00.00 55123  226 Echelon Velo
23395.71Joseph Oliveri   Grass Valley, CA00:00:00.00 26674  218 HDR Racing p/b Lombardi Sports
24403.66Channing Chen   Burlingame, CA00:00:00.00 205706  220 Fusion Sport USA
DNSBrian McCleary (Cat2)   Sacramento, CA00:00:00.00 109066  206 FCI Commercial Capital
DNPMichael Boals   Berkeley, CA00:00:00.00 221818  200 Metromint Cycling
DNPMichael Camarena   Lindsay, CA00:00:00.00 47386  201 Yokohl Ranch/Sierra Bicycle We
DNPRichard Juarez (Cat2)   Mill Valley, CA00:00:00.00 71186  205 VOS-Racing Team
DNPGregory Pike   Salinas, CA00:00:00.00 158350  207 VOS Racing
DNPJess Raphael   Napa, CA00:00:00.00 221460  208 SAFEWAY/Bicycles Plus/PureRed
DNPRey Surla   Fremont, CA00:00:00.00 91423  210 Team Fremont
DNPPaul Taylor   Brentwood, CA00:00:00.00 207281  211 Metromint Cycling
DNPMartin Wolff   Carmel, CA00:00:00.00 203646  212 VOS Racing
DNPChris Courtney   Oakdale, CA00:00:00.00 47303  216 SJBC
DNPLeon Pitts   Carmel, CA00:00:00.00 213367  217 VOS Racing
DNPJohn Cheetham   Pleasanton, CA00:00:00.00 202515  224 Metromint Cycling

Men - Cat 3

 Place Points NameCity, StateTime USAC #BibTeam
1269.30Nick Hanni   San Francisco00:00:00.00 96693  316 Fusion Sport USA
2280.92Ryan Gadow   Dublin, CA00:00:00.00 271417  306 SJBC
3292.55Robbie Franscioni   Salinas, CA00:00:00.00 298805  305 California Giant Cycling
4304.17Griffin Stone   Clovis, CA00:00:00.00 234161  319 Stevens Bicycle Racing
5315.79Keven Bricknell   San Francisco, CA00:00:00.00 253261  303 Fusion Sport
6327.42Andrew Lanier Jr   Gilroy, CA00:00:00.00 226086  325 Team Specialized Racing Junior
7339.04Ernest Gallardo   Greenfield, CA00:00:00.00 90586  307 Vos Racing
8350.66Stone Beck   Fresno, CA00:00:00.00 219237  318 Stevens Bicycle Racing
9362.28Luciano Berry   Sunol, CA00:00:00.00 192658  323 SJBC
10373.91Kalani Hines   San Francisco, CA00:00:00.00 219316  309 metromint cycling
11385.53Jason Allen   Carmichael, CA00:00:00.00 202003  300 River City Racing / Hot Italia
12397.15Tim Butler   Clovis, CA00:00:00.00 239746  322 Sierra Pacific Racing
13408.78Kenny Strickland   San Ramon, CA00:00:00.00 270965  321 SJBC
14420.40Michael Ricks   Stockton, CA00:00:00.00 250319  312 Chico Corsa
15432.02Kyle Ashton   Sebastopol, CA00:00:00.00 264499  301 Village Peddler
16443.65Tyron Hooper   San Francisco, CA00:00:00.00 251276  310 Fusion Sport
17455.27Robert Quandt-Collier   Oakland, CA00:00:00.00 180155  311 Metromint Cycling
18466.89Paul Taylor   Brentwood, CA00:00:00.00 207281  314 Metromint Cycling
19478.52Michael Boals   Berkeley, CA00:00:00.00 221818  302 Metromint Cycling
20490.14John Cheetham   Pleasanton, CA00:00:00.00 202515  317 Metromint Cycling
DNSErnest Gallardo   Greenfield, CA00:00:00.00 90586  308 Vos Racing
DNPJoseph Christensen   Clements, CA00:00:00.00 240832  304 SJBC
DNPRey Surla   Fremont, CA00:00:00.00 91423  313 Team Fremont
DNPSamuel Wilson   Palo Alto, CA00:00:00.00 248077  315 Metromint Cycling
DNPBill Nicely   San Ramon, CA00:00:00.00 215434  320 VOS Racing
DNPRainier Schaefer   Sanfrancisco, CA00:00:00.00 304249  324 GodSpeed Courier

Men - Cat 4/5

 Place Points NameCity, StateTime USAC #BibTeam
1412.56nick baird   Sanger, CA00:00:00.00 309596  403 
2418.68Ben Earl   San Luis Obispo, CA00:00:00.00 273452  417 SLO Nexus - Gym One
3424.80Curtis Hong   Dublin, CA00:00:00.00 305875  428 Attached
4430.92stephen starr   Rohnert Park, CA00:00:00.00 305188  468 2 Wheel Racing
5437.03Jason Hardi   Citrus Heights, CA00:00:00.00 287921  425 Vapor Racing
6443.15Matt Abbott   Santa Rosa, CA00:00:00.00 260224  400 2WheelRacing
7449.27David Doll   Merced, CA00:00:00.00 281768  416 Stanislaus/Merlock Velo
8455.39Mike Nissen   Livermore, CA00:00:00.00 296024  465 Taleo Racing
9461.51Joseph Ison   San Francisco, CA00:00:00.00 302419  430 
10467.63Paul Ngo   San Jose, CA00:00:00.00 275571  443 Team Roaring Mouse
11473.75Michael Heywood   San Francisco, CA00:00:00.00 268236  467 Kovarus/ABTA
12479.86Rory Osbrink   Pleasanton, CA00:00:00.00 218676  445 Hawk Relay Cycling Team
13485.98Daniel Stevens   Cayucos Ca00:00:00.00 304754  453 
14492.10David Brunetti   Modesto, CA00:00:00.00 5236  407 NA
15498.22Scott Hellam   Fresno, CA00:00:00.00 287510  426 Rubber Soul/CSC
16504.34Michael Brandt (1 - Cat5)   Wilton, CA00:00:00.00 288772  406 Team Mad Cat
17510.46Chaz Turmon   Sanger00:00:00.00 291490  457 Rubber Soul/CSC Racing Team
18516.58Matt Schaupp   Watsonville, CA00:00:00.00 311816  462 Team Bicycle Trip/Symantec
19522.70Jeremy Tuttle   Clovis, CA00:00:00.00 303019  458 Central Valley Cycling
20528.81Mike Brunetti   Escalon, CA00:00:00.00 273437  408 NA
21534.93Byron Rhodes   Bakersfield, CA00:00:00.00 308492  451 
22541.05Jason Oxford   Fresno, CA00:00:00.00 277338  447 Vapor Racing - vaporracing.com
23547.17Matthew Esselstrom   Modesto, CA00:00:00.00 277510  419 Fun Sport Bikes Cycling Team
24553.29kevin leong   Oakland, CA00:00:00.00 303230  436 
25559.41Greg Tripoli   Hanford, CA00:00:00.00 281420  456 Rubber Soul/CSC Racing Team
26Ian COBERLY   00:00:00.00  412 
27571.64Andrew Osgood   Modesto, CA00:00:00.00 228249  446 VSRT/Livermore Cyclery
28577.76Scott Osgood (1 - Cat4)   Modesto, CA00:00:00.00 26875  461 VSRT/Livermore Cyclery
29583.88Trevor Szewczyk (2 - Cat4)   Danville, CA00:00:00.00 282211  454 Taleo Racing
30590.00Patrick Peters   Davis, CA00:00:00.00 303960  466 Unattached
DNSTimothy Burgess   Windsor, CA00:00:00.00 275383  409 Team NorCal Bikesport
DNSErik Camacho   San Jose, CA00:00:00.00 303224  410 Team Fremont/FFBC powered by C
DNSJohn Collins   Folsom, CA00:00:00.00 231774  413 Team Revolutions
DNSMatthew Cox   Walnut Creek, CA00:00:00.00 302521  414 
DNSChristopher Dare (Cat4)   Oakland, CA00:00:00.00 286085  415 Team Clif bar
DNSRobbie Farrens   Stockton, CA00:00:00.00 289433  420 DJs Produce - Rocket Sports-Tr
DNSKatherine Hamilton   Fairfax, CA00:00:00.00 253544  424 Roaring Mouse
DNSGlenn Imke   Bakersfield, CA00:00:00.00 280879  429 Action Sports
DNSkevin jeffers   Santa Rosa, CA00:00:00.00 307307  431 team norcal bike sport
DNSJordan McElroy   Truckee, CA00:00:00.00 296295  440 TRUCKEE BICYCLE TEAM
DNSTom McElroy   Truckee, CA00:00:00.00 296294  441 TRUCKEE BICYCLE TEAM
DNSMark NISKANEN   00:00:00.00  444 
DNSMichael Painter   Chico Ca00:00:00.00 289184  448 Chico Corsa Cycling Club
DNSBrian Priddin   El Dorado, CA00:00:00.00 178247  450 
DNSadam thatcher   Chico, CA00:00:00.00 311983  455 
DNSBrian White   Windsor, CA00:00:00.00 307402  459 NorCal Bike Sport
DNSRobert Woodward   Madera, CA00:00:00.00 303875  460 Central Valley Cycling
DNPAndrew Alonis   Palo Alto, CA00:00:00.00 292239  401 Peninsula Velo/Pomodoro
DNPReed Azevedo (Cat4)   Manteca, CA00:00:00.00 281782  402 Williams Cycling
DNPJeff Bilodeau   Brentwood, CA00:00:00.00 305630  404 taleo racing
DNPJonathan Christensen   Clements, CA00:00:00.00 250315  411 DJs Produce - Rocket Sports
DNPJuan ESPARZA   00:00:00.00  418 
DNPSugoon Fucharoen   Stanford, CA00:00:00.00 286481  421 
DNPEamonn Gormley   Sunnyvale, CA00:00:00.00 282501  422 Los Gatos
DNPcody greer   Sanger, CA00:00:00.00 309590  423 
DNPPhilippe Hering   Menlo Park, CA00:00:00.00 289803  427 Minimax
DNPDarren Johnson   Fresno, CA00:00:00.00 310422  432 
DNPDuke Kang   Aliso Viejo, CA00:00:00.00 305020  433 Dolce Vita Cycling
DNPJoshua Kessler   San Luis Obispo, CA00:00:00.00 304814  434 SLO Nexus - Gym One
DNPJ Lemons   Hanford, CA00:00:00.00 274625  435 Central Sierra Cyclists
DNPJeff Linder   Sunnyvale, CA00:00:00.00 307653  437 
DNPCraig Martin   Auburn, CA00:00:00.00 304421  438 Folsom Bike
DNPRaoul MartinBlouin   Walnut Creek, CA00:00:00.00 303631  439 Taleo Racing
DNPJake Nelson (Cat5)   Turlock, CA00:00:00.00 278270  442 
DNPJay Parkhill   San Francisco, CA00:00:00.00 27283  449 Team Roaring Mouse
DNPRob Robinson   Castro Valley, CA00:00:00.00 271386  452 Taleo Racing
DNPNathan NORBECK   00:00:00.00  463 Golden Chain
DNPMatthew Berrien   Folsom, CA00:00:00.00 287318  464 Rio Strada Racing
DNPJohn STANTON   00:00:00.00  469 

Men - Cat 4/5 - Master - 35-99

 Place Points NameCity, StateTime USAC #BibTeam
1383.85Greg Tripoli   Hanford, CA00:00:00.00 281420  150 Rubber Soul/CSC Racing Team
2388.88Kashy Ghazzagh   Santa Rosa, CA00:00:00.00 295719  119 Team Norcal Bike Sport
3393.91Rick Graves   San Rafael, CA00:00:00.00 100365  121 Taleo Racing
4398.93Jason Oxford   Fresno, CA00:00:00.00 277338  134 Vapor Racing - vaporracing.com
5403.96Mike Nissen   Livermore, CA00:00:00.00 296024  130 Taleo Racing
6408.99Raymond Rodriguez   Santa Rosa, CA00:00:00.00 93483  140 2wheel cycling
7414.02Star Stevenson   Santa Rosa, CA00:00:00.00 236074  148 2WHEELCYCLING
8419.05J Clifford   Roseville, CA00:00:00.00 232661  111 Taleo Racing
9424.07John Fallon   Denver, CO00:00:00.00 278385  115 Wells Fargo Racing Team
10429.10Givargis Betoshana   Ripon, CA00:00:00.00 55276  103 Fun Sport Bikes Cycling Team
11434.13John Collins   Folsom, CA00:00:00.00 231774  160 Team Revolutions
12439.16Wyatt Garcia   Atwater, CA00:00:00.00 287655  118 Stanislaus Merlock/Velo
13UNKNOWN RIDER   00:00:00.00  ??? -------
14UNKNOWN RIDER   00:00:00.00  ??? -------
15454.24stephen starr   Rohnert Park, CA00:00:00.00 305188  146 Team NorCal Bike Sport
16459.27Mike Brunetti   Escalon, CA00:00:00.00 273437  107 NA
17UNKNOWN RIDER   00:00:00.00  ??? -------
18UNKNOWN RIDER   00:00:00.00  ??? -------
19UNKNOWN RIDER   00:00:00.00  ??? -------
20UNKNOWN RIDER   00:00:00.00  ??? -------
21UNKNOWN RIDER   00:00:00.00  ??? -------
22UNKNOWN RIDER   00:00:00.00  ??? -------
23UNKNOWN RIDER   00:00:00.00  ??? -------
24UNKNOWN RIDER   00:00:00.00  ??? -------
25UNKNOWN RIDER   00:00:00.00  ??? -------
26UNKNOWN RIDER   00:00:00.00  ??? -------
27UNKNOWN RIDER   00:00:00.00  ??? -------
28519.61Matthew Berrien   Folsom, CA00:00:00.00 287318  102 
29524.64Don Gaymon (1 - Cat5)   El Dorado Hills, CA00:00:00.00 312642  156 Team Revolutions
30529.66Aaron Phillips   Brentwood, CA00:00:00.00 273263  137 Williams Cycling
31534.69Juan Ortiz   Castro Valley, CA00:00:00.00 26838  155 Unattached
32539.72Kenneth Schneider   San Ramon, CA00:00:00.00 293383  143 
33544.75Mike Munoz   Cameronpark, CA00:00:00.00 307140  129 Revolutions
34549.78Roger Steuble   Jackson, CA00:00:00.00 305013  147 Team Revolutions
35554.80Jim Goodwin   Modesto, CA00:00:00.00 303986  120 Fun Sport Bikes Cycling Team
36559.83Manuel Calero   San Pablo, CA00:00:00.00 307277  109 
37564.86Roger Von Rotz   Modesto, CA00:00:00.00 240458  151 Fun Sport Bikes Cycling Team
38569.89Chris King   San Francisco, CA00:00:00.00 245892  126 Dolce Vita Cycling
39574.92Steve Rosefield   Pleasanton, CA00:00:00.00 298343  141 Tri Valley Velo
40579.94Arin Jeffers (2 - Cat5)   Rocklin, CA00:00:00.00 299848  157 Folsom Bike
41584.97Tim McCracken   Greenbrae, CA00:00:00.00 198482  161 Taleo Racing
42590.00Darron Sturgeon   Reno, NV00:00:00.00 286787  149 Reno Wheelmen
DNSMitch Boehs   Livingston, CA00:00:00.00 237309  105 Fun Sport Bikes Cycling Team
DNSTimothy Burgess   Windsor, CA00:00:00.00 275383  108 Team NorCal Bikesport
DNSErik Camacho   San Jose, CA00:00:00.00 303224  110 Team Fremont/FFBC powered by C
DNSRudy Garcez (Cat5)   Merced, CA00:00:00.00 306243  117 
DNSGlenn Imke   Bakersfield, CA00:00:00.00 280879  124 Action Sports
DNSMitch Karno   Santa Barbara, CA00:00:00.00 205902  125 Team Chicken Ranch
DNSTodd Lewis (Cat5)   Salida, CA00:00:00.00 21117  127 Fun Sport Bikes Cycling Team
DNSWilliam McBride   Santa Barbara, CA00:00:00.00 287300  128 
DNSBrian Priddin   El Dorado, CA00:00:00.00 178247  138 
DNSDavid Setton   Danville, CA00:00:00.00 303681  145 Berkeley Bike Club (BBC)
DNSBrian White   Windsor, CA00:00:00.00 307402  152 NorCal Bike Sport
DNSRobert Woodward   Madera, CA00:00:00.00 303875  153 Central Valley Cycling
DNPRichard Asturias   Pleasanton, CA00:00:00.00 236210  100 Tri Valley Velo
DNPReed Azevedo (Cat4)   Manteca, CA00:00:00.00 281782  101 Williams Cycling
DNPJodi Birrell   Morgan Hill, CA00:00:00.00 260006  104 TBS Racing
DNPDavid Brunetti   Modesto, CA00:00:00.00 5236  106 NA
DNPChris De Deaux   Turlock, CA00:00:00.00 184911  113 Fun Sport Bikes Cycling Team
DNPMatthew Esselstrom   Modesto, CA00:00:00.00 277510  114 Fun Sport Bikes Cycling Team
DNPManuel Galindo (Cat5)   Sunnyvale, CA00:00:00.00 313850  116 
DNPMatthew Gregory   Escalon, CA00:00:00.00 250497  122 Fun Sport Bikes Cyclin Team
DNPScott Hellam   Fresno, CA00:00:00.00 287510  123 Rubber Soul/CSC
DNPRobert O'Brien   San Francisco, CA00:00:00.00 216347  131 CAF
DNPTrevor Oldershaw   Albany, CA00:00:00.00 294096  132 
DNPScott Osgood (Cat4)   Modesto, CA00:00:00.00 26875  133 Fun Sports Bike Cycling Team
DNPJay Parkhill   San Francisco, CA00:00:00.00 27283  135 Team Roaring Mouse
DNPAmit Paz   Danville, CA00:00:00.00 203861  136 Taleo Racing
DNPRob Robinson   Castro Valley, CA00:00:00.00 271386  139 Taleo Racing
DNPWilliam Ruffner   Morgan Hill, CA00:00:00.00 220929  142 TBS Racing Team
DNPSTUART SCHULTZ   Modesto, CA00:00:00.00 303832  144 Fun Sport Bikes Cycling Team
DNPMichael Saba   Oakland, CA00:00:00.00 285459  154 Taleo Racing
DNPLeland Jones   Fresno, CA00:00:00.00 107204  158 Vapor Racing
DNPTom Cesar   Fresno, CA00:00:00.00 304936  159 Vapor Racing

Men - Masters - Master - 45-99

 Place Points NameCity, StateTime USAC #BibTeam
1271.54Richard Juarez (1 - Cat2)   Mill Valley, CA00:00:00.00 71186  VOS-Racing Team
2292.82Gregory Pike   Salinas, CA00:00:00.00 158350  16 VOS Racing
3314.10Steven Gile   Salinas, CA00:00:00.00 98978  VOS
4335.38Robert Blaswich   Newbury Park, CA00:00:00.00 131956  Santa Clarita Velo
5356.66Jeremy Wire   Menlo Park, CA00:00:00.00 285056  20 SJBC
6377.94Mark Robertson   Oakland, CA00:00:00.00 237380  23 Lamorinda Cycling Club
7399.22Joe McCrummen   Brentwood, CA00:00:00.00 23350  11 Taleo Racing
8420.50Chris Courtney   Oakdale, CA00:00:00.00 47303  25 SJBC
9441.78Robert Napieralski   Springville, CA00:00:00.00 271499  13 Yokohl Ranch/Sierra Bicycle We
10463.06Leon Pitts   Carmel, CA00:00:00.00 213367  27 VOS Racing
DNSGiovanni Campisi   Santa Rosa, CA00:00:00.00 256021  Taem NorCal Bike Sport
DNSBrian McCleary (Cat2)   Sacramento, CA00:00:00.00 109066  10 FCI Commercial Capital
DNSSteven Olechny   Saratoga , CA00:00:00.00 142113  14 Taleo Racing
DNPMichael Camarena   Lindsay, CA00:00:00.00 47386  Yokohl Ranch/Sierra Bicycle We
DNPKevin Farrauto   Livermore, CA00:00:00.00 662  Christian Cycling/Hammer Nutri
DNPMatthew Gregory   Escalon, CA00:00:00.00 250497  Fun Sport Bikes Cyclin Team
DNPRocco Hollaway   Modesto, CA00:00:00.00 195261  VSRT/Livermore Cyclery
DNPR Todd Marshall   Sacramento, CA00:00:00.00 43936  Armstong & Assoc./ FCI Lending
DNPRon Meskis   Stockton, CA00:00:00.00 305400  12 Delta Velo
DNPPatrick Peters   Davis, CA00:00:00.00 303960  15 
DNPRobert Quandt-Collier (Cat3)   Oakland, CA00:00:00.00 180155  17 Metromint Cycling
DNPJess Raphael   Napa, CA00:00:00.00 221460  18 SAFEWAY/Bicycles Plus/PureRed
DNPRich Rozzi   Hollywood Ca00:00:00.00 230031  19 Colavita Racing-Norcal
DNPMartin Wolff   Carmel, CA00:00:00.00 203646  21 VOS Racing
DNPJohn Gerling   Modesto, CA00:00:00.00 218917  22 Fun Sport Bikes Cycling Team
DNPRon Callison   Danville, CA00:00:00.00 130870  24 Christian Cycling-Hammer Nutri
DNPTim McCracken   Greenbrae, CA00:00:00.00 198482  26 Taleo Racing
DNPJoseph Oliveri   Grass Valley, CA00:00:00.00 26674  28 HDR Racing p/b Lombardi Sports
DNPJeffrey Purcell   Hughson, CA00:00:00.00 53815  29 Fun Sport Bikes Cycling Team

Men - Masters - Master - 55-99

 Place Points NameCity, StateTime USAC #BibTeam
1351.75Mark Caldwell   Moraga, CA00:00:00.00 40039  62 morgan stanley smith barney/sp
2368.41Brian Fessenden   Orinda, CA00:00:00.00 54692  64 Morgan Stanley Smith Barney/Sp
3385.08Greg Bollella   Redwood City, CA00:00:00.00 235126  60 Webcor / Alto Velo
4401.74Dana Farmer   Gold River, CA00:00:00.00 150815  63 VOS-Racing
5418.40Manuel Borges   Vacavaille, CA00:00:00.00 254360  61 VOS Racing
6435.07Michael Lynch   Ripon, CA00:00:00.00 180322  70 Team WM
DNSErnest Gallardo Sr   Soledad Ca.00:00:00.00 12682  65 Vos Racing
DNSChristopher Kolm   Moraga, CA00:00:00.00 254578  69 Taleo Racing
DNPErnest Gallardo Sr   Soledad Ca.00:00:00.00 12682  66 Vos Racing
DNPMark Holmes   Turlock, CA00:00:00.00 16603  67 Fun Sport Bikes Cycling Team
DNPRichard Holve   Sebastopol, CA00:00:00.00 280115  68 
DNPPeter Piepul (Cat3)   San Jose, CA00:00:00.00 28118  71 SJBC
DNPDavid Stockwell   San Jose, CA00:00:00.00 53052  72 SJBC
DNPRoger Von Rotz   Modesto, CA00:00:00.00 240458  73 Fun Sport Bikes Cycling Team
DNPJohn Schaupp    Watsonville, CA00:00:00.00 48510  74 Team Bicycle Trip/Symantec

Report missing or incorrect license numbers

Volkswagen
Bonk BreakerShimanoSpySierra NevadaUSACDF
UCI USA Cycling is the official governing body for all disciplines of competitive cycling in the United States. The 501c3, membership-based organization aims both to achieve sustained success in international cycling competition and to grow competitive cycling in America while delivering an exceptional customer experience.
View Children's Online Privacy Protection Policy
US Olympic Committee